CW4746 Weather Reports


time (UTC)temp
F
wind
direction
speed
knots
gust
knots
rain 1hr
in
rain 24hr
in
rain mn
in
humidity
%
barometer
mb
20260507083004 43 360 11.3 0.0 0.00 0.00 0.00 81 1015.1
20260507081547 44 360 10.4 0.0 0.00 0.00 0.00 80 1015.3
20260507080010 44 360 10.4 0.0 0.00 0.00 0.00 79 1015.4
20260507074536 45 360 10.4 0.0 0.00 0.00 0.00 79 1015.6
20260507073055 45 360 10.4 0.0 0.00 0.00 0.00 78 1015.8
20260507071529 46 360 12.2 0.0 0.00 0.00 0.00 77 1016.0
20260507070017 46 360 11.3 0.0 0.00 0.00 0.00 77 1016.1
20260507064551 46 360 11.3 0.0 0.00 0.00 0.00 75 1016.3
20260507063002 46 360 10.4 0.0 0.00 0.00 0.00 74 1016.5
20260507061544 47 360 11.3 0.0 0.00 0.00 0.00 72 1016.6
20260507060029 46 360 10.4 0.0 0.00 0.00 0.00 72 1016.7
20260507054551 47 360 11.3 0.0 0.00 0.00 0.00 70 1016.7
20260507053048 47 360 10.4 0.0 0.00 0.00 0.00 70 1016.7
20260507051505 47 360 10.4 0.0 0.00 0.00 0.00 66 1016.8
20260507050032 47 360 10.4 0.0 0.00 0.00 0.00 65 1016.8
20260507044550 46 360 9.6 0.0 0.00 0.00 0.00 64 1017.0
20260507043025 46 360 7.8 0.0 0.00 0.00 0.00 65 1017.2
20260507041541 46 360 7.8 0.0 0.00 0.00 0.00 63 1017.2
20260507040101 46 360 7.8 0.0 0.00 0.00 0.00 62 1017.2
20260507034524 46 360 7.8 0.0 0.00 0.00 0.00 60 1017.3
20260507033106 46 360 7.0 0.0 0.00 0.00 0.00 57 1017.5
20260507031543 47 360 7.0 0.0 0.00 0.00 0.00 55 1017.4
20260507030025 48 360 7.0 0.0 0.00 0.00 0.00 52 1017.4
20260507024556 48 360 5.2 0.0 0.00 0.00 0.00 50 1017.4
20260507023003 48 360 6.1 0.0 0.00 0.00 0.00 49 1017.3
20260507021525 48 360 5.2 0.0 0.00 0.00 0.00 49 1017.0
20260507020010 48 360 4.3 0.0 0.00 0.00 0.00 47 1016.9
20260507014557 50 360 5.2 0.0 0.00 0.00 0.00 41 1016.8
20260507013010 53 360 3.5 0.0 0.00 0.00 0.00 38 1016.8
20260507011539 55 360 2.6 0.0 0.00 0.00 0.00 35 1016.8
20260507010002 57 245 4.3 0.0 0.00 0.00 0.00 34 1016.9
20260507004529 58 227 8.7 0.0 0.00 0.00 0.00 33 1016.9
20260507003059 58 248 3.5 0.0 0.00 0.00 0.00 34 1017.0
20260507001536 59 271 3.5 0.0 0.00 0.00 0.00 32 1017.0
20260506234519 59 248 13.0 0.0 0.00 0.00 0.00 31 1017.2
20260506233056 60 259 3.5 0.0 0.00 0.00 0.00 35 1017.2
20260506231512 58 292 1.7 0.0 0.00 0.00 0.00 33 1017.4
20260506230106 58 280 5.2 0.0 0.00 0.00 0.00 35 1017.6
20260506224535 59 274 3.5 0.0 0.00 0.00 0.00 34 1017.7
20260506223009 59 271 6.1 0.0 0.00 0.00 0.00 33 1017.8
20260506221552 60 267 2.6 0.0 0.00 0.00 0.00 34 1017.9
20260506220027 60 242 4.3 0.0 0.00 0.00 0.00 33 1018.1
20260506214554 59 265 3.5 0.0 0.00 0.00 0.00 34 1018.2
20260506213022 59 291 7.0 0.0 0.00 0.00 0.00 31 1018.4
20260506211514 62 271 9.6 0.0 0.00 0.00 0.00 30 1018.5
20260506204504 61 223 12.2 0.0 0.00 0.00 0.00 30 1018.8
20260506203106 61 224 12.2 0.0 0.00 0.00 0.00 31 1019.2
20260506201539 59 190 7.8 0.0 0.00 0.00 0.00 34 1019.2
20260506194539 58 328 4.3 0.0 0.00 0.00 0.00 36 1019.5
20260506193053 58 244 6.1 0.0 0.00 0.00 0.00 36 1019.7
20260506191522 59 266 7.0 0.0 0.00 0.00 0.00 33 1019.7
20260506190026 57 274 5.2 0.0 0.00 0.00 0.00 34 1019.8
20260506184606 58 242 9.6 0.0 0.00 0.00 0.00 34 1019.9
20260506183042 58 302 8.7 0.0 0.00 0.00 0.00 34 1020.3
20260506181517 58 259 5.2 0.0 0.00 0.00 0.00 36 1020.1
20260506180052 59 275 4.3 0.0 0.00 0.00 0.00 37 1020.4
20260506174526 58 304 3.5 0.0 0.00 0.00 0.00 35 1020.5
20260506173134 56 280 7.0 0.0 0.00 0.00 0.00 39 1020.7
20260506171551 57 236 2.6 0.0 0.00 0.00 0.00 36 1020.6
20260506170013 56 184 7.0 0.0 0.00 0.00 0.00 36 1021.0
20260506164605 55 309 3.5 0.0 0.00 0.00 0.00 39 1021.0
20260506163005 54 223 3.5 0.0 0.00 0.00 0.00 39 1021.0
20260506161554 54 335 5.2 0.0 0.00 0.00 0.00 39 1021.1
20260506160023 53 253 2.6 0.0 0.00 0.00 0.00 41 1021.2
20260506154516 54 329 2.6 0.0 0.00 0.00 0.00 40 1021.1
20260506153005 52 296 3.5 0.0 0.00 0.00 0.00 43 1021.1
20260506151545 50 242 2.6 0.0 0.00 0.00 0.00 41 1021.1
20260506150014 50 252 1.7 0.0 0.00 0.00 0.00 44 1020.9
20260506144554 51 302 1.7 0.0 0.00 0.00 0.00 48 1021.0
20260506143030 49 237 0.9 0.0 0.00 0.00 0.00 48 1021.0
20260506141504 48 264 0.9 0.0 0.00 0.00 0.00 47 1021.0
20260506140054 49 115 0.0 0.0 0.00 0.00 0.00 52 1020.9
20260506134537 48 242 0.9 0.0 0.00 0.00 0.00 52 1020.8
20260506133008 47 298 0.9 0.0 0.00 0.00 0.00 55 1020.6
20260506131546 46 325 0.9 0.0 0.00 0.00 0.00 61 1020.4
20260506130016 44 360 0.9 0.0 0.00 0.00 0.00 65 1020.3
20260506124558 42 284 0.9 0.0 0.00 0.00 0.00 69 1020.2
20260506123027 41 360 0.9 0.0 0.00 0.00 0.00 71 1019.8
20260506121608 40 360 0.9 0.0 0.00 0.00 0.00 73 1019.7
20260506120032 39 360 0.0 0.0 0.00 0.00 0.00 71 1019.3
20260506114531 39 360 0.9 0.0 0.00 0.00 0.00 70 1019.1
20260506113015 39 360 0.9 0.0 0.00 0.00 0.00 68 1019.0
20260506111554 40 360 0.9 0.0 0.00 0.00 0.00 67 1018.7
20260506110027 40 360 0.9 0.0 0.00 0.00 0.00 66 1018.7
20260506104519 41 360 0.9 0.0 0.00 0.00 0.00 64 1018.8
20260506103021 42 360 0.0 0.0 0.00 0.00 0.00 65 1018.6
20260506101553 42 360 0.0 0.0 0.00 0.00 0.00 64 1018.7
20260506094507 41 360 0.0 0.0 0.00 0.00 0.00 65 1018.6
20260506093113 41 360 0.0 0.0 0.00 0.00 0.00 64 1018.5
20260506091533 41 360 0.0 0.0 0.00 0.00 0.00 64 1018.3
20260506090002 41 360 0.0 0.0 0.00 0.00 0.00 62 1018.2
20260506084601 41 360 0.0 0.0 0.00 0.00 0.00 61 1017.8